CWSA

Sable Island  Airport

Nova Scotia, Canada
Issued Wind Visibility Ceiling Temperature Dew Point Humidity Barometer
Nov-22
06:00 UTC
210°
13 KTS
4 miles   C
48° F
C
46° F
94% 30.21" Hg
1023.1 hPa
MVFR
Nov-22
05:00 UTC
220°
14 KTS
3 miles   C
48° F
C
46° F
94% 30.19" Hg
1022.6 hPa
MVFR
Nov-22
04:00 UTC
220°
14 KTS
4 miles   C
48° F
C
46° F
94% 30.21" Hg
1023.1 hPa
MVFR
Nov-22
03:00 UTC
210°
13 KTS
4 miles   C
46° F
C
45° F
93% 30.21" Hg
1023 hPa
MVFR
Nov-22
02:00 UTC
230°
14 KTS
4 miles   C
46° F
C
43° F
87% 30.22" Hg
1023.4 hPa
MVFR
Nov-22
01:00 UTC
250°
10 KTS
Gust 15 KTS
4 miles   C
45° F
C
41° F
87% 30.23" Hg
1023.7 hPa
MVFR
Nov-22
00:54 UTC
260°
10 KTS
Gust 15 KTS
5 miles   C
45° F
C
41° F
87% 30.22" Hg
1023.6 hPa
MVFR
Nov-22
00:32 UTC
250°
12 KTS
6 miles   C
45° F
C
39° F
81% 30.22" Hg
1023.5 hPa
VFR
Nov-22
00:23 UTC
260°
10 KTS
5 miles   C
45° F
C
39° F
81% 30.22" Hg
1023.5 hPa
MVFR
Nov-22
00:00 UTC
260°
8 KTS
7 miles   C
45° F
C
39° F
81% 30.23" Hg
1023.7 hPa
VFR
Nov-21
23:00 UTC
270°
13 KTS
Gust 19 KTS
9 miles   C
43° F
C
36° F
76% 30.22" Hg
1023.6 hPa
VFR
Nov-21
22:00 UTC
280°
15 KTS
Gust 23 KTS
9 miles   C
43° F
C
34° F
71% 30.21" Hg
1023.1 hPa
VFR
Nov-21
21:00 UTC
260°
15 KTS
Gust 24 KTS
9 miles   C
41° F
C
32° F
70% 30.19" Hg
1022.3 hPa
VFR
Nov-21
20:00 UTC
260°
16 KTS
Gust 24 KTS
9 miles   C
41° F
C
32° F
70% 30.17" Hg
1021.8 hPa
VFR
Nov-21
19:00 UTC
260°
14 KTS
Gust 23 KTS
9 miles   C
41° F
-1° C
30° F
66% 30.15" Hg
1021.1 hPa
VFR
Nov-21
18:00 UTC
270°
14 KTS
Gust 20 KTS
9 miles Broken
2,900' AGL
C
41° F
-1° C
30° F
66% 30.13" Hg
1020.5 hPa
MVFR
Nov-21
17:00 UTC
270°
12 KTS
Gust 24 KTS
9 miles Broken
3,700' AGL
C
41° F
-2° C
28° F
61% 30.13" Hg
1020.3 hPa
VFR
Nov-21
16:00 UTC
270°
18 KTS
Gust 25 KTS
9 miles Broken
3,500' AGL
C
41° F
-4° C
25° F
53% 30.11" Hg
1019.9 hPa
VFR
Nov-21
15:00 UTC
280°
19 KTS
Gust 24 KTS
9 miles Broken
3,700' AGL
C
39° F
-4° C
25° F
56% 30.1" Hg
1019.5 hPa
VFR
Nov-21
14:00 UTC
290°
17 KTS
Gust 26 KTS
9 miles Overcast
4,000' AGL
C
37° F
-2° C
28° F
70% 30.08" Hg
1018.8 hPa
VFR
Nov-21
13:00 UTC
290°
20 KTS
Gust 31 KTS
9 miles Broken
4,000' AGL
C
37° F
-4° C
25° F
60% 30.05" Hg
1017.6 hPa
VFR
Nov-21
12:00 UTC
290°
16 KTS
Gust 28 KTS
9 miles Broken
3,700' AGL
C
37° F
-4° C
25° F
60% 30.01" Hg
1016.4 hPa
VFR
Nov-21
11:56 UTC
280°
20 KTS
Gust 28 KTS
9 miles Broken
3,700' AGL
C
37° F
-3° C
27° F
65% 30.01" Hg
1016.2 hPa
VFR
Nov-21
11:41 UTC
280°
20 KTS
Gust 27 KTS
9 miles Overcast
4,100' AGL
C
37° F
-2° C
28° F
70% 30" Hg
1016 hPa
VFR
Nov-21
11:39 UTC
280°
16 KTS
Gust 27 KTS
9 miles Overcast
4,100' AGL
C
36° F
-2° C
28° F
75% 30" Hg
1015.9 hPa
VFR
Nov-21
11:29 UTC
290°
19 KTS
Gust 29 KTS
9 miles Broken
3,300' AGL
C
37° F
-2° C
28° F
70% 29.99" Hg
1015.6 hPa
VFR
Nov-21
11:00 UTC
280°
23 KTS
Gust 32 KTS
9 miles Broken
2,900' AGL
C
37° F
-2° C
28° F
70% 29.96" Hg
1014.8 hPa
MVFR
Nov-21
10:39 UTC
280°
22 KTS
Gust 29 KTS
9 miles Broken
3,700' AGL
C
37° F
-2° C
28° F
70% 29.96" Hg
1014.5 hPa
VFR
Nov-21
10:00 UTC
280°
21 KTS
Gust 29 KTS
9 miles Broken
4,700' AGL
C
37° F
-2° C
28° F
70% 29.93" Hg
1013.6 hPa
VFR
Nov-21
09:39 UTC
280°
22 KTS
Gust 29 KTS
9 miles Overcast
4,400' AGL
C
37° F
-2° C
28° F
70% 29.91" Hg
1013.1 hPa
VFR
Nov-21
09:32 UTC
290°
22 KTS
Gust 29 KTS
9 miles Overcast
4,500' AGL
C
37° F
-2° C
28° F
70% 29.91" Hg
1012.9 hPa
VFR
Nov-21
09:01 UTC
290°
20 KTS
Gust 32 KTS
9 miles Broken
3,700' AGL
C
37° F
-2° C
28° F
70% 29.88" Hg
1012 hPa
VFR
Nov-21
08:18 UTC
290°
21 KTS
Gust 34 KTS
9 miles Broken
4,500' AGL
C
37° F
-3° C
27° F
65% 29.85" Hg
1010.8 hPa
VFR
Nov-21
08:08 UTC
280°
22 KTS
Gust 28 KTS
9 miles Overcast
5,500' AGL
C
37° F
-2° C
28° F
70% 29.85" Hg
1010.8 hPa
VFR
Nov-21
08:03 UTC
280°
22 KTS
Gust 28 KTS
9 miles Overcast
5,500' AGL
C
37° F
-2° C
28° F
70% 29.84" Hg
1010.6 hPa
VFR
Nov-21
07:50 UTC
290°
20 KTS
Gust 31 KTS
9 miles Broken
4,700' AGL
C
37° F
-1° C
30° F
75% 29.84" Hg
1010.5 hPa
VFR
Nov-21
07:40 UTC
290°
21 KTS
Gust 30 KTS
9 miles Broken
4,300' AGL
C
37° F
-1° C
30° F
75% 29.83" Hg
1010.3 hPa
VFR
Nov-21
07:28 UTC
280°
19 KTS
Gust 27 KTS
9 miles Broken
3,800' AGL
C
37° F
C
32° F
81% 29.82" Hg
1010 hPa
VFR
Nov-21
07:23 UTC
280°
20 KTS
Gust 27 KTS
8 miles Broken
3,500' AGL
C
36° F
C
32° F
87% 29.82" Hg
1010 hPa
VFR
Nov-21
07:10 UTC
280°
21 KTS
Gust 34 KTS
5 miles Broken
3,200' AGL
C
36° F
-1° C
30° F
81% 29.82" Hg
1010 hPa
MVFR